GW4285 Weather Reports


time (UTC)temp
F
wind
direction
speed
knots
gust
knots
rain 1hr
in
rain 24hr
in
rain mn
in
humidity
%
barometer
mb
20260506201946 66 253 0.9 3.5 0.00 0.00 0.00 79 1020.2
20260506201444 67 251 3.5 7.0 0.00 0.00 0.00 78 1020.2
20260506200940 67 259 1.7 6.1 0.00 0.00 0.00 78 1020.3
20260506200436 67 244 1.7 6.1 0.00 0.00 0.00 79 1020.3
20260506195933 67 264 5.2 8.7 0.00 0.00 0.00 79 1020.4
20260506195430 67 232 4.3 7.0 0.00 0.00 0.00 78 1020.3
20260506194927 68 261 4.3 7.0 0.00 0.00 0.00 76 1020.3
20260506194424 66 269 4.3 7.0 0.00 0.00 0.00 78 1020.4
20260506193920 67 261 2.6 6.1 0.00 0.00 0.00 79 1020.4
20260506193418 68 264 0.0 2.6 0.00 0.00 0.00 81 1020.5
20260506192914 66 265 4.3 6.1 0.00 0.00 0.00 79 1020.6
20260506192411 67 263 0.9 2.6 0.00 0.00 0.00 79 1020.6
20260506191908 69 235 1.7 2.6 0.00 0.00 0.00 74 1020.5
20260506191404 69 232 2.6 2.6 0.00 0.00 0.00 71 1020.6
20260506190901 69 229 0.0 0.9 0.00 0.00 0.00 72 1020.7
20260506190357 69 228 0.0 4.3 0.00 0.00 0.00 71 1020.7
20260506185855 68 188 0.0 0.9 0.00 0.00 0.00 71 1020.7
20260506185352 68 214 0.9 4.3 0.00 0.00 0.00 73 1020.8
20260506184848 68 231 1.7 2.6 0.00 0.00 0.00 73 1020.7
20260506184345 68 231 2.6 3.5 0.00 0.00 0.00 75 1020.7
20260506183843 68 235 0.9 2.6 0.00 0.00 0.00 72 1020.7
20260506183338 67 232 0.0 3.5 0.00 0.00 0.00 74 1020.8
20260506182836 67 235 3.5 4.3 0.00 0.00 0.00 74 1020.7
20260506182333 66 214 0.9 2.6 0.00 0.00 0.00 78 1020.8
20260506181830 66 240 2.6 4.3 0.00 0.00 0.00 78 1020.8
20260506181328 66 240 0.0 0.9 0.00 0.00 0.00 78 1020.8
20260506180825 66 233 0.0 0.9 0.00 0.00 0.00 76 1020.7
20260506180321 65 240 0.9 3.5 0.00 0.00 0.00 78 1020.7
20260506175817 65 247 4.3 7.0 0.00 0.00 0.00 79 1020.7
20260506175314 66 241 2.6 4.3 0.00 0.00 0.00 78 1020.7
20260506174812 66 235 0.9 0.9 0.00 0.00 0.00 78 1020.7
20260506174309 63 233 1.7 2.6 0.00 0.00 0.00 81 1020.7
20260506173806 63 236 0.9 3.5 0.00 0.00 0.00 80 1020.6
20260506173303 63 242 0.9 2.6 0.00 0.00 0.00 81 1020.7
20260506172800 63 235 2.6 4.3 0.00 0.00 0.00 82 1020.7
20260506172256 63 243 2.6 3.5 0.00 0.00 0.00 82 1020.7
20260506171754 63 233 0.0 0.9 0.00 0.00 0.00 80 1020.7
20260506171251 63 239 1.7 2.6 0.00 0.00 0.00 81 1020.7
20260506170749 62 239 2.6 3.5 0.00 0.00 0.00 83 1020.8
20260506170245 61 239 2.6 3.5 0.00 0.00 0.00 84 1020.9
20260506165743 62 245 3.5 6.1 0.00 0.00 0.00 84 1020.8
20260506165240 61 238 0.9 3.5 0.00 0.00 0.00 84 1020.8
20260506164737 61 236 1.7 3.5 0.00 0.00 0.00 84 1020.8
20260506164234 61 236 0.0 0.9 0.00 0.00 0.00 83 1020.9
20260506163731 59 236 1.7 2.6 0.00 0.00 0.00 86 1020.8
20260506163226 60 239 3.5 3.5 0.00 0.00 0.00 85 1020.8
20260506162722 59 233 0.0 0.9 0.00 0.00 0.00 88 1020.8
20260506162220 58 236 0.9 2.6 0.00 0.00 0.00 89 1020.8
20260506161717 58 240 1.7 3.5 0.00 0.00 0.00 88 1020.7
20260506161214 58 238 0.9 3.5 0.00 0.00 0.00 89 1020.8
20260506160712 58 237 0.0 2.6 0.00 0.00 0.00 89 1020.7
20260506160208 58 233 0.9 2.6 0.00 0.00 0.00 89 1020.7
20260506155706 58 238 0.0 0.9 0.00 0.00 0.00 89 1020.7
20260506155203 58 234 0.0 0.0 0.00 0.00 0.00 91 1020.7
20260506153305 56 240 0.9 2.6 0.00 0.00 0.00 92 1020.6
20260506152802 56 240 0.0 0.0 0.00 0.00 0.00 93 1020.6
20260506152259 56 240 0.0 0.0 0.00 0.00 0.00 93 1020.6
20260506151758 55 239 0.0 0.0 0.00 0.00 0.00 94 1020.5
20260506151254 55 239 0.0 0.0 0.00 0.00 0.00 94 1020.6
20260506150751 55 240 0.0 0.0 0.00 0.00 0.00 94 1020.5
20260506150248 55 240 0.0 0.0 0.00 0.00 0.00 94 1020.6
20260506145745 55 239 0.0 0.0 0.00 0.00 0.00 95 1020.5
20260506145241 54 239 0.0 0.0 0.00 0.00 0.00 95 1020.5
20260506144739 54 240 0.0 0.0 0.00 0.00 0.00 95 1020.6
20260506144236 54 242 0.0 0.0 0.00 0.00 0.00 96 1020.5
20260506143733 54 242 0.0 0.0 0.00 0.00 0.00 96 1020.4
20260506143231 54 242 0.0 0.0 0.00 0.00 0.00 96 1020.4
20260506142729 54 242 0.0 0.0 0.00 0.00 0.00 96 1020.4
20260506142227 54 242 0.0 0.0 0.00 0.00 0.00 96 1020.5
20260506141725 54 242 0.0 0.0 0.00 0.00 0.00 97 1020.3
20260506141223 54 242 0.0 0.0 0.00 0.00 0.00 97 1020.4
20260506140720 53 242 0.0 0.0 0.00 0.00 0.00 97 1020.2
20260506140217 53 242 0.0 0.0 0.00 0.00 0.00 98 1020.1
20260506135713 53 242 0.0 0.0 0.00 0.00 0.00 98 1020.1
20260506135210 53 242 0.0 0.0 0.00 0.00 0.00 98 1020.1
20260506134707 53 242 0.0 0.0 0.00 0.00 0.00 98 1020.1
20260506134203 53 242 0.0 0.0 0.00 0.00 0.00 98 1020.1
20260506133700 53 242 0.0 0.0 0.00 0.00 0.00 98 1020.2
20260506133157 53 242 0.0 0.0 0.00 0.00 0.00 98 1020.1
20260506132654 53 242 0.0 0.0 0.00 0.00 0.00 98 1020.2
20260506132151 53 242 0.0 0.0 0.00 0.00 0.00 98 1020.0
20260506131649 53 241 0.0 0.0 0.00 0.00 0.00 98 1020.0
20260506131145 53 241 0.0 0.0 0.00 0.00 0.00 98 1020.0
20260506130641 53 242 0.0 0.0 0.00 0.00 0.00 98 1019.9
20260506130139 53 242 0.0 0.0 0.00 0.00 0.00 98 1020.1
20260506125637 53 242 0.0 0.0 0.00 0.00 0.00 98 1019.9
20260506125134 53 242 0.0 0.0 0.00 0.00 0.00 98 1019.8
20260506124632 53 242 0.0 0.0 0.00 0.00 0.00 98 1019.9
20260506124130 53 243 0.0 0.0 0.00 0.00 0.00 98 1019.9
20260506123627 53 243 0.0 0.0 0.00 0.00 0.00 98 1019.8
20260506123126 53 244 0.0 0.0 0.00 0.00 0.00 98 1019.9
20260506122622 53 244 0.0 0.0 0.00 0.00 0.00 98 1019.8
20260506122120 53 244 0.0 0.0 0.00 0.00 0.00 97 1019.7
20260506121617 53 244 0.0 0.0 0.00 0.00 0.00 98 1019.7
20260506121114 53 244 0.0 0.0 0.00 0.00 0.00 98 1019.7
20260506120612 53 244 0.0 0.0 0.00 0.00 0.00 98 1019.6
20260506120109 53 244 0.0 0.0 0.00 0.00 0.00 98 1019.6
20260506115607 53 244 0.0 0.0 0.00 0.00 0.00 98 1019.6
20260506115105 53 244 0.0 0.0 0.00 0.00 0.00 98 1019.6
20260506114602 53 244 0.0 0.0 0.00 0.00 0.00 98 1019.5
20260506114100 53 244 0.0 0.0 0.00 0.00 0.00 98 1019.5
20260506113558 53 244 0.0 0.0 0.00 0.00 0.00 98 1019.5
20260506113055 53 244 0.0 0.0 0.00 0.00 0.00 98 1019.5
20260506112551 53 244 0.0 0.0 0.00 0.00 0.00 98 1019.5
20260506112049 53 244 0.0 0.0 0.00 0.00 0.00 98 1019.4
20260506111547 53 244 0.0 0.0 0.00 0.00 0.00 98 1019.5
20260506111044 53 244 0.0 0.0 0.00 0.00 0.00 97 1019.5
20260506110541 53 244 0.0 0.0 0.00 0.00 0.00 98 1019.4
20260506110038 53 244 0.0 0.0 0.00 0.00 0.00 98 1019.4
20260506105534 53 244 0.0 0.0 0.00 0.00 0.00 98 1019.5
20260506105032 53 244 0.0 0.0 0.00 0.00 0.00 98 1019.4
20260506104530 53 244 0.0 0.0 0.00 0.00 0.00 98 1019.3
20260506104027 53 244 0.0 0.0 0.00 0.00 0.00 98 1019.3
20260506103524 53 244 0.0 0.0 0.00 0.00 0.00 98 1019.2
20260506103021 53 244 0.0 0.0 0.00 0.00 0.00 98 1019.2
20260506102520 53 244 0.0 0.0 0.00 0.00 0.00 97 1019.2
20260506102017 53 243 0.0 0.0 0.00 0.00 0.00 97 1019.2
20260506101513 53 255 0.0 0.0 0.00 0.00 0.00 97 1019.2
20260506101010 53 254 0.0 0.0 0.00 0.00 0.00 97 1019.3
20260506100508 53 236 0.0 0.0 0.00 0.00 0.00 97 1019.1
20260506100007 53 256 0.0 0.0 0.00 0.00 0.00 97 1019.0
20260506095505 53 256 0.0 0.0 0.00 0.00 0.00 97 1019.0
20260506095000 53 246 0.0 0.0 0.00 0.00 0.00 97 1019.1
20260506094459 53 246 0.0 0.0 0.00 0.00 0.00 97 1019.0
20260506093956 53 246 0.0 0.0 0.00 0.00 0.00 97 1019.0
20260506093454 53 246 0.0 0.0 0.00 0.00 0.00 96 1019.1
20260506092951 53 246 0.0 0.0 0.00 0.00 0.00 96 1019.0
20260506092449 53 246 0.0 0.0 0.00 0.00 0.00 96 1019.1
20260506091945 53 246 0.0 0.0 0.00 0.00 0.00 97 1019.1
20260506091444 53 246 0.0 0.0 0.00 0.00 0.00 96 1019.2
20260506090941 53 252 0.0 0.0 0.00 0.00 0.00 96 1019.1
20260506090439 53 249 0.0 0.0 0.00 0.00 0.00 96 1019.1
20260506085935 53 250 0.0 0.0 0.00 0.00 0.00 96 1019.2
20260506085432 53 257 0.0 0.0 0.00 0.00 0.00 96 1019.2
20260506084928 53 257 0.0 0.0 0.00 0.00 0.00 96 1019.3
20260506084425 53 257 0.0 0.0 0.00 0.00 0.00 96 1019.1
20260506083921 53 257 0.0 0.0 0.00 0.00 0.00 96 1019.2
20260506083419 53 257 0.0 0.0 0.00 0.00 0.00 96 1019.3
20260506082916 53 258 0.0 0.0 0.00 0.00 0.00 97 1019.3
20260506082413 53 259 0.0 0.0 0.00 0.00 0.00 96 1019.3
20260506081908 53 250 0.0 0.0 0.00 0.00 0.00 97 1019.2
20260506081407 53 258 0.0 0.0 0.00 0.00 0.00 97 1019.2
20260506080904 53 258 0.0 0.0 0.00 0.00 0.00 97 1019.2
20260506080400 53 259 0.0 0.0 0.00 0.00 0.00 97 1019.2
20260506073344 53 262 0.0 0.0 0.00 0.00 0.00 97 1018.9
20260506072841 53 264 0.0 0.0 0.00 0.00 0.00 97 1018.8
20260506072339 53 264 0.0 0.0 0.00 0.00 0.00 97 1018.8
20260506071837 53 263 0.0 0.9 0.00 0.00 0.00 97 1018.8
20260506071335 53 264 0.0 0.9 0.00 0.00 0.00 97 1018.8
20260506070831 53 261 0.0 0.0 0.00 0.00 0.00 97 1018.7
20260506070328 53 262 0.0 0.0 0.00 0.00 0.00 97 1018.6
20260506062306 53 253 0.0 0.0 0.00 0.03 0.03 97 1018.5
20260506061801 53 241 0.0 0.9 0.00 0.03 0.03 97 1018.3
20260506061258 53 251 0.0 0.0 0.00 0.03 0.03 97 1018.3
20260506060757 53 238 0.0 0.0 0.00 0.03 0.03 96 1018.2
20260506060254 53 281 0.0 0.9 0.00 0.03 0.03 96 1018.3
20260506051225 53 240 0.0 0.9 0.00 0.03 0.03 96 1017.9
20260506050724 53 238 0.0 0.0 0.00 0.03 0.03 96 1017.9
20260506050221 53 257 0.0 0.0 0.00 0.03 0.03 96 1017.8
20260506044712 53 261 0.0 0.0 0.00 0.03 0.03 96 1017.7
20260506044209 53 248 0.0 0.0 0.00 0.03 0.03 96 1017.7
20260506043706 53 241 0.9 2.6 0.00 0.03 0.03 96 1017.8
20260506043204 53 249 0.9 2.6 0.00 0.03 0.03 95 1017.6
20260506042703 53 235 0.9 2.6 0.00 0.03 0.03 95 1017.4
20260506042201 53 255 0.0 0.9 0.00 0.03 0.03 95 1017.5
20260506041659 53 245 0.9 3.5 0.00 0.03 0.03 95 1017.4
20260506041155 53 232 0.0 0.9 0.00 0.03 0.03 95 1017.3
20260506040653 53 261 0.9 2.6 0.00 0.03 0.03 95 1017.4
20260506040150 54 242 0.9 2.6 0.00 0.03 0.03 95 1017.3
20260506035647 54 237 0.0 2.6 0.00 0.03 0.03 94 1017.2
20260506035143 54 245 0.0 0.9 0.00 0.03 0.03 94 1017.1
20260506034640 54 231 0.0 2.6 0.00 0.03 0.03 94 1017.2
20260506034137 54 238 0.0 2.6 0.00 0.03 0.03 94 1017.1
20260506033635 54 241 0.0 3.5 0.00 0.03 0.03 93 1017.1
20260506033131 54 246 0.0 2.6 0.00 0.03 0.03 93 1017.0
20260506032629 54 197 0.0 3.5 0.00 0.03 0.03 93 1016.9
20260506032126 55 244 0.0 0.0 0.00 0.03 0.03 92 1016.6
20260506031623 55 248 2.6 2.6 0.00 0.03 0.03 91 1016.6
20260506031119 55 252 0.0 0.0 0.00 0.03 0.03 91 1016.5
20260506030618 55 246 0.0 0.0 0.00 0.03 0.03 91 1016.4
20260506030115 55 247 0.0 0.0 0.00 0.03 0.03 90 1016.4
20260506025612 55 225 0.0 0.9 0.00 0.03 0.03 89 1016.4
20260506025107 55 258 0.0 0.0 0.00 0.03 0.03 89 1016.3
20260506024605 55 263 0.0 2.6 0.00 0.03 0.03 88 1016.4
20260506024101 55 251 0.0 2.6 0.00 0.03 0.03 88 1016.3
20260506023557 56 281 4.3 4.3 0.00 0.03 0.03 87 1016.6
20260506023055 56 256 0.9 4.3 0.00 0.03 0.03 86 1016.3
20260506022552 56 253 8.7 9.6 0.00 0.03 0.03 85 1016.2
20260506022050 56 272 2.6 4.3 0.00 0.03 0.03 86 1016.2
20260506021547 56 248 4.3 7.0 0.00 0.03 0.03 85 1016.1
20260506021044 56 248 5.2 8.7 0.00 0.03 0.03 85 1016.2
20260506020542 56 248 6.1 8.7 0.00 0.03 0.03 85 1016.1
20260506020039 56 243 3.5 7.0 0.00 0.03 0.03 85 1016.0
20260506015536 57 258 3.5 7.0 0.00 0.03 0.03 83 1015.9
20260506015033 57 260 5.2 7.0 0.00 0.03 0.03 84 1016.0
20260506014530 57 258 6.1 7.0 0.00 0.03 0.03 83 1015.9
20260506014026 57 263 4.3 4.3 0.00 0.03 0.03 83 1015.8
20260506013525 58 230 2.6 3.5 0.00 0.03 0.03 83 1015.8
20260506013021 58 260 0.0 4.3 0.00 0.03 0.03 82 1015.8
20260506012517 58 275 4.3 6.1 0.00 0.03 0.03 83 1015.7
20260506012014 58 251 0.9 6.1 0.00 0.03 0.03 83 1015.7
20260506011512 58 276 3.5 4.3 0.00 0.03 0.03 82 1015.7
20260506011008 57 276 1.7 4.3 0.00 0.03 0.03 83 1015.7
20260506010507 57 271 1.7 8.7 0.00 0.03 0.03 83 1015.8
20260506010003 58 238 1.7 4.3 0.00 0.03 0.03 83 1015.8
20260506005500 58 279 5.2 7.0 0.00 0.03 0.03 82 1015.7
20260506004955 58 237 2.6 8.7 0.00 0.03 0.03 82 1015.8
20260506004454 58 240 7.8 9.6 0.00 0.03 0.03 82 1015.7
20260506003949 59 259 7.0 8.7 0.00 0.03 0.03 81 1015.8
20260506003446 59 264 4.3 4.3 0.00 0.03 0.03 82 1015.6
20260506002942 59 252 4.3 9.6 0.00 0.03 0.03 82 1015.6
20260506002439 59 237 5.2 10.4 0.00 0.03 0.03 82 1015.5
20260506001934 60 268 1.7 3.5 0.00 0.03 0.03 82 1015.4
20260506001432 59 256 4.3 6.1 0.00 0.03 0.03 81 1015.5
20260506000929 59 260 4.3 7.0 0.00 0.03 0.03 82 1015.5
20260506000426 60 272 2.6 6.1 0.00 0.03 0.03 81 1015.5
20260505235923 60 247 1.7 7.0 0.00 0.03 0.03 81 1015.4
20260505235421 60 240 2.6 7.0 0.00 0.03 0.03 81 1015.4
20260505234917 60 267 4.3 6.1 0.00 0.03 0.03 80 1015.4
20260505234415 60 259 5.2 8.7 0.00 0.03 0.03 81 1015.5
20260505233912 60 265 7.0 8.7 0.00 0.03 0.03 80 1015.4
20260505233409 60 240 6.1 9.6 0.00 0.03 0.03 80 1015.5
20260505232907 60 286 5.2 8.7 0.00 0.03 0.03 81 1015.3
20260505232404 60 248 6.1 9.6 0.00 0.03 0.03 81 1015.4
20260505231901 60 266 4.3 4.3 0.00 0.03 0.03 81 1015.3
20260505231358 60 239 4.3 7.0 0.00 0.03 0.03 81 1015.4
20260505230857 61 253 3.5 6.1 0.00 0.03 0.03 81 1015.4
20260505230354 61 260 0.9 4.3 0.00 0.03 0.03 81 1015.3
20260505225850 61 261 3.5 4.3 0.00 0.03 0.03 79 1015.4
20260505225348 61 249 1.7 6.1 0.00 0.03 0.03 80 1015.3
20260505224842 62 277 3.5 4.3 0.00 0.03 0.03 80 1015.3
20260505224341 63 245 0.9 0.9 0.00 0.03 0.03 79 1015.3
20260505223837 63 272 0.9 3.5 0.00 0.03 0.03 77 1015.4
20260505223334 64 261 0.9 2.6 0.00 0.03 0.03 78 1015.4
20260505222830 63 277 0.0 3.5 0.00 0.03 0.03 79 1015.4
20260505222326 62 259 0.9 4.3 0.00 0.03 0.03 78 1015.4
20260505221824 63 261 2.6 6.1 0.00 0.03 0.03 77 1015.4
20260505221320 63 253 0.9 6.1 0.00 0.03 0.03 78 1015.4
20260505220817 62 255 1.7 4.3 0.00 0.03 0.03 78 1015.4
20260505220314 62 265 3.5 4.3 0.00 0.03 0.03 79 1015.5
20260505215813 62 240 2.6 7.0 0.00 0.03 0.03 79 1015.4
20260505215310 62 272 2.6 4.3 0.00 0.03 0.03 79 1015.6
20260505214808 62 263 2.6 3.5 0.00 0.03 0.03 80 1015.5
20260505214305 61 260 4.3 6.1 0.00 0.03 0.03 80 1015.5
20260505213802 61 243 5.2 6.1 0.00 0.03 0.03 79 1015.7
20260505213300 62 231 5.2 8.7 0.00 0.03 0.03 80 1015.7
20260505212755 62 224 0.0 4.3 0.00 0.03 0.03 79 1015.6
20260505212253 61 250 6.1 7.0 0.00 0.03 0.03 79 1015.8
20260505211749 62 250 0.9 6.1 0.00 0.03 0.03 79 1015.6
20260505211247 61 247 2.6 4.3 0.00 0.03 0.03 79 1015.8
20260505210743 61 257 4.3 6.1 0.00 0.03 0.03 79 1015.8
20260505210240 62 245 2.6 6.1 0.00 0.03 0.03 78 1015.8
20260505205737 61 262 3.5 6.1 0.00 0.03 0.03 81 1015.8
20260505205235 61 270 0.0 0.0 0.00 0.03 0.03 80 1015.9
20260505204731 61 262 3.5 4.3 0.00 0.03 0.03 80 1015.8
20260505204229 62 237 0.0 0.9 0.00 0.03 0.03 78 1015.7
20260505203726 61 233 0.0 0.0 0.00 0.03 0.03 79 1015.9
20260505203223 61 234 0.0 3.5 0.00 0.03 0.03 80 1015.6
20260505202719 62 244 1.7 7.0 0.00 0.03 0.03 79 1015.7